LKKB Weather Reports


time (UTC)temp
C
wind
direction
speed
KPH
gust
KPH
rain 1hr
cm
rain 24hr
cm
rain mn
cm
humidity
%
barometer
mb
20260508120211 12 360 12.9 0.0 0.00 0.00 0.00 66 1018.0
20260508113103 12 360 9.7 0.0 0.00 0.00 0.00 66 1018.0
20260508111853 12 360 8.0 0.0 0.00 0.00 0.00 66
20260508103103 12 340 12.9 0.0 0.00 0.00 0.00 71 1018.0
20260508102053 12 330 11.3 0.0 0.00 0.00 0.00 66
20260508100210 12 320 9.7 0.0 0.00 0.00 0.00 71 1018.0
20260508093103 11 310 11.3 0.0 0.00 0.00 0.00 76 1019.0
20260508091851 11 310 11.3 0.0 0.00 0.00 0.00 76
20260508090211 11 300 11.3 0.0 0.00 0.00 0.00 76 1018.0
20260508083103 10 310 9.7 0.0 0.00 0.00 0.00 81 1018.0
20260508081851 10 300 11.3 0.0 0.00 0.00 0.00 76
20260508080210 10 300 11.3 0.0 0.00 0.00 0.00 76 1018.0
20260508073103 10 300 9.7 0.0 0.00 0.00 0.00 76 1018.0
20260508071954 8 330 11.3 0.0 0.00 0.00 0.00 81
20260508063102 8 320 9.7 0.0 0.00 0.00 0.00 81 1017.0
20260508061853 8 310 8.0 0.0 0.00 0.00 0.00 81
20260508060103 8 320 8.0 0.0 0.00 0.00 0.00 81 1017.0
20260508053102 7 330 11.3 0.0 0.00 0.00 0.00 87 1017.0
20260508051853 7 310 11.3 0.0 0.00 0.00 0.00 87
20260508043103 7 310 9.7 0.0 0.00 0.00 0.00 93 1017.0
20260508042055 7 320 8.0 0.0 0.00 0.00 0.00 87
20260508040104 7 310 8.0 0.0 0.00 0.00 0.00 93 1017.0
20260508035402 7 300 8.0 0.0 0.00 0.00 0.00 93 1017.0
20260508033802 7 290 4.8 0.0 0.00 0.00 0.00 87 1017.0
20260508033102 7 300 4.8 0.0 0.00 0.00 0.00 87 1016.0
20260508031852 7 330 8.0 0.0 0.00 0.00 0.00 87
20260508031808 7 320 4.8 0.0 0.00 0.00 0.00 87 1016.0
20260508030103 7 320 8.0 0.0 0.00 0.00 0.00 93 1016.0
20260508023102 7 330 8.0 0.0 0.00 0.00 0.00 93 1016.0
20260508021852 7 330 11.3 0.0 0.00 0.00 0.00 93
20260508020212 8 330 8.0 0.0 0.00 0.00 0.00 87 1016.0
20260508013103 8 320 11.3 0.0 0.00 0.00 0.00 87 1016.0
20260508011951 8 320 11.3 0.0 0.00 0.00 0.00 87
20260508010211 8 320 11.3 0.0 0.00 0.00 0.00 87 1016.0
20260508003103 8 310 11.3 0.0 0.00 0.00 0.00 87 1016.0
20260508001851 8 300 11.3 0.0 0.00 0.00 0.00 87
20260507233103 10 300 8.0 0.0 0.00 0.00 0.00 87 1016.0
20260507232103 10 290 9.7 0.0 0.00 0.00 0.00 87 1016.0
20260507231851 10 340 11.3 0.0 0.00 0.00 0.00 87
20260507231003 10 300 9.7 0.0 0.00 0.00 0.00 87 1016.0
20260507230603 10 320 9.7 0.0 0.00 0.00 0.00 87 1016.0
20260507225402 10 330 11.3 0.0 0.00 0.00 0.00 87 1016.0
20260507223102 10 320 9.7 0.0 0.00 0.00 0.00 87 1016.0
20260507222602 10 320 9.7 0.0 0.00 0.00 0.00 87 1016.0
20260507222153 10 320 11.3 0.0 0.00 0.00 0.00 87
20260507213103 10 320 11.3 0.0 0.00 0.00 0.00 87 1016.0
20260507211853 10 320 14.5 0.0 0.00 0.00 0.00 87
20260507210103 10 320 12.9 0.0 0.00 0.00 0.00 87 1016.0
20260507203103 11 320 12.9 0.0 0.00 0.00 0.00 87 1015.0
20260507201854 11 340 11.3 0.0 0.00 0.00 0.00 87
20260507200212 11 340 11.3 0.0 0.00 0.00 0.00 87 1015.0
20260507193102 11 310 12.9 0.0 0.00 0.00 0.00 87 1014.0
20260507191954 12 310 14.5 0.0 0.00 0.00 0.00 81
20260507183102 12 280 11.3 0.0 0.00 0.00 0.00 81 1014.0
20260507181851 12 280 14.5 0.0 0.00 0.00 0.00 76
20260507173102 13 280 14.5 0.0 0.00 0.00 0.00 67 1013.0
20260507171851 13 250 19.3 0.0 0.00 0.00 0.00 67
20260507163103 13 270 19.3 0.0 0.00 0.00 0.00 62 1013.0
20260507162154 15 280 22.5 0.0 0.00 0.00 0.00 58
20260507160104 15 280 22.5 0.0 0.00 0.00 0.00 58 1012.0
20260507153355 15 260 27.4 0.0 0.00 0.00 0.00 58 1012.0
20260507153103 15 260 27.4 0.0 0.00 0.00 0.00 58 1012.0
20260507151852 16 250 22.5 0.0 0.00 0.00 0.00 55
20260507143103 17 240 22.5 0.0 0.00 0.00 0.00 51 1012.0
20260507141854 17 220 22.5 0.0 0.00 0.00 0.00 51
20260507133102 16 210 22.5 0.0 0.00 0.00 0.00 55 1012.0
20260507131954 16 230 25.7 0.0 0.00 0.00 0.00 55
20260507130103 16 220 24.1 0.0 0.00 0.00 0.00 55 1012.0
20260507123102 16 210 22.5 0.0 0.00 0.00 0.00 55 1012.0
20260507121853 16 220 25.7 0.0 0.00 0.00 0.00 51